Renton, WA
on Monday, November 19, 2012

Monday
Previous Day Next Day
Daily Summary
 ActualAverage (KSEA)Record (KSEA)
Temperature
Mean Temperature °F 45°F  
Max Temperature 59°F 50°F 60°F (1965)
Min Temperature 50°F 39°F 25°F (1977)
Degree Days
Heating Degree Days 10 20  
Month to date heating degree days 348  
Since 1 July heating degree days 945  
Cooling Degree Days 0 0  
Month to date cooling degree days 0  
Year to date cooling degree days 189  
Growing Degree Days4 (Base °F )  
Moisture
Dew Point 48°F   
Average Humidity 80    
Maximum Humidity 89    
Minimum Humidity 67    
Precipitation
Precipitation 1.83 in 0.24 in 2.13 in (2012)
Month to date precipitation 4.12  
Year to date precipitation 29.69  
Snow
Snow 0.00 in in 7.00 in (1996)
Month to date snowfall  
Since 1 July snowfall  
Snow Depth in   
Wind
Wind Speed 7 mph   
Max Wind Speed 16 mph   
Max Gust Speed 30 mph   
Visibility 7 miles   
Events Rain , Thunderstorm   

Key: T is trace of precipitation, MM is missing value
Source: NWS Daily Summary
Time(PST)TemperatureDew PointHumidity Pressure Visibility Wind DirectionWind SpeedGust SpeedPrecipitationEvents Conditions
12:53 AM 51.1°F 44.1°F 77% 29.58 in 10.0 miles SE 5.8 mph - 0.00 in   Overcast
1:53 AM 51.1°F 43.0°F 74% 29.57 in 10.0 miles East 4.6 mph - 0.00 in   Overcast
2:53 AM 55.0°F 44.1°F 67% 29.55 in 10.0 miles SE 8.1 mph - 0.00 in   Overcast
3:53 AM 54.0°F 44.1°F 69% 29.58 in 10.0 miles SSE 8.1 mph 16.1 mph 0.01 in Rain Light Rain
4:53 AM 50.0°F 46.0°F 86% 29.57 in 6.0 miles Variable 4.6 mph - 0.19 in Rain Rain
5:53 AM 50.0°F 45.0°F 83% 29.56 in 3.0 miles East 8.1 mph - 0.24 in Rain Heavy Rain
6:53 AM 50.0°F 45.0°F 83% 29.50 in 4.0 miles East 8.1 mph - 0.21 in Rain Rain
7:53 AM 50.0°F 46.0°F 86% 29.46 in 5.0 miles ESE 10.4 mph - 0.20 in Rain Rain
8:28 AM 53.6°F 46.4°F 77% 29.45 in 1.8 miles ESE 8.1 mph 19.6 mph 0.14 in Rain Heavy Rain
8:53 AM 51.1°F 48.0°F 89% 29.46 in 3.0 miles East 3.5 mph - 0.21 in Rain Rain
9:53 AM 52.0°F 46.9°F 83% 29.42 in 3.0 miles ESE 8.1 mph - 0.12 in Rain Light Rain
10:53 AM 55.9°F 50.0°F 80% 29.38 in 9.0 miles SE 10.4 mph 18.4 mph 0.05 in Rain Light Rain
11:53 AM 59.0°F 48.9°F 69% 29.37 in 5.0 miles SSE 13.8 mph 29.9 mph 0.04 in Rain Light Rain
12:53 PM 59.0°F 50.0°F 72% 29.37 in 9.0 miles SSE 12.7 mph 26.5 mph 0.07 in Rain Light Rain
1:10 PM 57.2°F 51.8°F 82% 29.40 in 2.0 miles SSW 9.2 mph 20.7 mph 0.07 in Rain Rain
1:30 PM 57.2°F 51.8°F 82% 29.44 in 1.0 miles South 8.1 mph - 0.19 in Rain Heavy Rain
1:39 PM 57.2°F 51.8°F 82% 29.45 in 2.5 miles South 16.1 mph 23.0 mph 0.22 in Rain Rain
1:44 PM 57.2°F 51.8°F 82% 29.45 in 3.0 miles SSE 12.7 mph 23.0 mph 0.24 in Rain Rain
1:53 PM 57.0°F 51.1°F 81% 29.46 in 2.5 miles SSE 11.5 mph 23.0 mph 0.29 in Rain Heavy Rain
2:05 PM 57.2°F 48.2°F 72% 29.45 in 8.0 miles SE 11.5 mph 23.0 mph 0.02 in Rain Light Rain
2:53 PM 55.9°F 48.0°F 75% 29.46 in 10.0 miles ESE 5.8 mph - 0.02 in Rain Light Rain
3:53 PM 54.0°F 50.0°F 86% 29.48 in 3.0 miles Variable 3.5 mph - 0.08 in Rain Rain
4:53 PM 54.0°F 48.9°F 83% 29.48 in 10.0 miles ESE 4.6 mph - 0.02 in Rain Light Rain
5:53 PM 57.0°F 48.9°F 74% 29.52 in 8.0 miles South 11.5 mph 19.6 mph 0.07 in Rain Light Rain
6:53 PM 55.9°F 48.9°F 77% 29.57 in 10.0 miles SSE 8.1 mph - 0.01 in   Mostly Cloudy
7:03 PM 55.4°F 48.2°F 77% 29.56 in 10.0 miles SSE 4.6 mph - N/A Thunderstorm Mostly Cloudy
7:14 PM 55.4°F 48.2°F 77% 29.56 in 10.0 miles SSE 4.6 mph - N/A   Scattered Clouds
7:53 PM 54.0°F 48.0°F 80% 29.60 in 10.0 miles SSE 6.9 mph - N/A   Partly Cloudy
8:53 PM 52.0°F 46.9°F 83% 29.64 in 10.0 miles Calm Calm - N/A   Clear
9:53 PM 52.0°F 46.0°F 80% 29.67 in 10.0 miles ESE 4.6 mph - N/A   Partly Cloudy
10:45 PM 50.0°F 46.4°F 87% 29.67 in 10.0 miles Calm Calm - N/A   Mostly Cloudy
10:53 PM 50.0°F 46.0°F 86% 29.69 in 10.0 miles Calm Calm - N/A   Mostly Cloudy
11:04 PM 51.8°F 46.4°F 82% 29.67 in 10.0 miles Variable 3.5 mph - N/A   Mostly Cloudy
11:17 PM 51.8°F 46.4°F 82% 29.68 in 10.0 miles Variable 3.5 mph - N/A   Mostly Cloudy
11:53 PM 52.0°F 46.0°F 80% 29.71 in 10.0 miles Calm Calm - N/A   Overcast
Moon Phase
Nov. 19 Nov. 20 Nov. 28 Dec. 06 Dec. 13
Sunrise:07:20 AM (PST) Moon Rise:12:16 PM (PST)11/19
Sunset:04:27 PM (PST) Moon Set:11:13 PM (PST)11/19

Copyright © 2014 The Weather Underground, Inc.